Time,TemperatureF,DewpointF,PressureIn,WindDirection,WindDirectionDegrees,WindSpeedMPH,WindSpeedGustMPH,Humidity,HourlyPrecipIn,Conditions,Clouds,dailyrainin,SoftwareType,DateUTC
2013-09-21 00:00:00,54.0,52.3,30.00,WSW,251,2.0,2.0,94,0.00,,,0.00,Wunderground v.1.15,2013-09-21 04:00:00,
2013-09-21 00:04:00,54.0,52.3,30.00,South,172,1.0,2.0,94,0.00,,,0.00,Wunderground v.1.15,2013-09-21 04:04:00,
2013-09-21 00:09:00,54.1,52.4,30.00,East,81,1.0,1.0,94,0.00,,,0.00,Wunderground v.1.15,2013-09-21 04:09:00,
2013-09-21 00:14:00,54.1,52.4,30.00,ENE,69,0.0,3.0,94,0.00,,,0.00,Wunderground v.1.15,2013-09-21 04:14:00,
2013-09-21 00:19:00,54.1,52.4,30.00,SSW,210,1.0,3.0,94,0.00,,,0.00,Wunderground v.1.15,2013-09-21 04:19:00,
2013-09-21 00:24:00,54.2,52.5,30.00,ENE,71,2.0,3.0,94,0.00,,,0.00,Wunderground v.1.15,2013-09-21 04:24:00,
2013-09-21 00:30:00,54.3,52.6,30.00,East,81,1.0,3.0,94,0.00,,,0.00,Wunderground v.1.15,2013-09-21 04:30:00,
2013-09-21 00:34:00,54.4,53.0,30.00,ESE,111,1.0,3.0,95,0.00,,,0.00,Wunderground v.1.15,2013-09-21 04:34:00,
2013-09-21 00:39:00,54.4,53.0,30.00,South,175,2.0,3.0,95,0.00,,,0.00,Wunderground v.1.15,2013-09-21 04:39:00,
2013-09-21 00:45:00,54.4,53.0,30.00,East,87,1.0,3.0,95,0.00,,,0.00,Wunderground v.1.15,2013-09-21 04:45:00,
2013-09-21 00:49:00,54.5,53.1,30.00,ENE,68,1.0,1.0,95,0.00,,,0.00,Wunderground v.1.15,2013-09-21 04:49:00,
2013-09-21 00:54:00,54.5,53.1,30.00,East,96,1.0,2.0,95,0.00,,,0.00,Wunderground v.1.15,2013-09-21 04:54:00,
2013-09-21 01:00:00,54.5,53.1,30.00,ENE,76,1.0,1.0,95,0.00,,,0.00,Wunderground v.1.15,2013-09-21 05:00:00,
2013-09-21 01:04:00,54.5,53.1,30.00,ESE,106,1.0,1.0,95,0.00,,,0.00,Wunderground v.1.15,2013-09-21 05:04:00,
2013-09-21 01:09:00,54.5,53.1,30.00,East,87,1.0,1.0,95,0.00,,,0.00,Wunderground v.1.15,2013-09-21 05:09:00,
2013-09-21 01:14:00,54.5,53.1,30.00,ENE,74,1.0,1.0,95,0.00,,,0.00,Wunderground v.1.15,2013-09-21 05:14:00,
2013-09-21 01:19:00,54.5,53.1,30.00,ENE,65,0.0,4.0,95,0.00,,,0.00,Wunderground v.1.15,2013-09-21 05:19:00,
2013-09-21 01:24:00,54.5,53.1,30.00,South,182,1.0,4.0,95,0.00,,,0.00,Wunderground v.1.15,2013-09-21 05:24:00,
2013-09-21 01:30:00,54.4,53.0,30.00,East,91,1.0,2.0,95,0.00,,,0.00,Wunderground v.1.15,2013-09-21 05:30:00,
2013-09-21 01:34:00,54.4,53.0,30.00,East,98,1.0,2.0,95,0.00,,,0.00,Wunderground v.1.15,2013-09-21 05:34:00,
2013-09-21 01:39:00,54.4,53.0,29.99,East,82,1.0,1.0,95,0.00,,,0.00,Wunderground v.1.15,2013-09-21 05:39:00,
2013-09-21 01:45:00,54.4,53.0,29.99,ENE,74,1.0,1.0,95,0.00,,,0.00,Wunderground v.1.15,2013-09-21 05:45:00,
2013-09-21 01:49:00,54.4,53.0,29.99,SE,130,1.0,3.0,95,0.00,,,0.00,Wunderground v.1.15,2013-09-21 05:49:00,
2013-09-21 01:54:00,54.4,53.0,29.99,ENE,76,2.0,3.0,95,0.00,,,0.00,Wunderground v.1.15,2013-09-21 05:54:00,
2013-09-21 01:59:00,54.3,52.9,29.99,East,97,1.0,1.0,95,0.00,,,0.00,Wunderground v.1.15,2013-09-21 05:59:00,
2013-09-21 02:04:00,54.3,52.9,29.99,ENE,68,1.0,2.0,95,0.00,,,0.00,Wunderground v.1.15,2013-09-21 06:04:00,
2013-09-21 02:09:00,54.3,52.9,29.98,East,79,2.0,2.0,95,0.00,,,0.00,Wunderground v.1.15,2013-09-21 06:09:00,
2013-09-21 02:14:00,54.3,52.9,29.98,ENE,67,2.0,2.0,95,0.00,,,0.00,Wunderground v.1.15,2013-09-21 06:14:00,
2013-09-21 02:19:00,54.3,52.9,29.97,ESE,119,1.0,2.0,95,0.00,,,0.00,Wunderground v.1.15,2013-09-21 06:19:00,
2013-09-21 02:24:00,54.4,53.0,29.97,ENE,71,1.0,2.0,95,0.00,,,0.00,Wunderground v.1.15,2013-09-21 06:24:00,
2013-09-21 02:29:00,54.4,53.0,29.98,East,94,1.0,1.0,95,0.00,,,0.00,Wunderground v.1.15,2013-09-21 06:29:00,
2013-09-21 02:39:00,54.4,53.0,29.97,ESE,109,1.0,1.0,95,0.00,,,0.00,Wunderground v.1.15,2013-09-21 06:39:00,
2013-09-21 02:45:00,54.4,53.0,29.97,ENE,63,1.0,2.0,95,0.00,,,0.00,Wunderground v.1.15,2013-09-21 06:45:00,
2013-09-21 02:49:00,54.4,53.0,29.97,ENE,70,1.0,1.0,95,0.00,,,0.00,Wunderground v.1.15,2013-09-21 06:49:00,
2013-09-21 02:54:00,54.4,53.0,29.96,East,79,1.0,1.0,95,0.00,,,0.00,Wunderground v.1.15,2013-09-21 06:54:00,
2013-09-21 02:59:00,54.5,53.1,29.96,ESE,114,2.0,2.0,95,0.00,,,0.00,Wunderground v.1.15,2013-09-21 06:59:00,
2013-09-21 03:09:00,54.6,53.2,29.96,East,91,1.0,1.0,95,0.00,,,0.00,Wunderground v.1.15,2013-09-21 07:09:00,
2013-09-21 03:14:00,54.6,53.2,29.96,ESE,103,1.0,2.0,95,0.00,,,0.00,Wunderground v.1.15,2013-09-21 07:14:00,
2013-09-21 03:19:00,54.7,53.3,29.95,East,101,0.0,0.0,95,0.00,,,0.00,Wunderground v.1.15,2013-09-21 07:19:00,
2013-09-21 03:24:00,54.7,53.3,29.95,East,86,0.0,2.0,95,0.00,,,0.00,Wunderground v.1.15,2013-09-21 07:24:00,
2013-09-21 03:29:00,54.7,53.3,29.95,East,101,0.0,0.0,95,0.00,,,0.00,Wunderground v.1.15,2013-09-21 07:29:00,
2013-09-21 03:34:00,54.7,53.3,29.95,ENE,68,1.0,1.0,95,0.00,,,0.00,Wunderground v.1.15,2013-09-21 07:34:00,
2013-09-21 03:39:00,54.8,53.4,29.95,ENE,69,1.0,1.0,95,0.00,,,0.00,Wunderground v.1.15,2013-09-21 07:39:00,
2013-09-21 03:45:00,54.8,53.4,29.95,ENE,67,1.0,2.0,95,0.00,,,0.00,Wunderground v.1.15,2013-09-21 07:45:00,
2013-09-21 03:49:00,54.8,53.4,29.95,East,79,1.0,1.0,95,0.00,,,0.00,Wunderground v.1.15,2013-09-21 07:49:00,
2013-09-21 03:54:00,54.9,53.5,29.95,East,79,1.0,1.0,95,0.00,,,0.00,Wunderground v.1.15,2013-09-21 07:54:00,
2013-09-21 04:00:00,54.9,53.5,29.95,ESE,109,1.0,1.0,95,0.00,,,0.00,Wunderground v.1.15,2013-09-21 08:00:00,
2013-09-21 04:04:00,55.0,53.6,29.95,ENE,65,1.0,1.0,95,0.00,,,0.00,Wunderground v.1.15,2013-09-21 08:04:00,
2013-09-21 04:09:00,55.0,53.6,29.95,ESE,114,1.0,1.0,95,0.00,,,0.00,Wunderground v.1.15,2013-09-21 08:09:00,
2013-09-21 04:14:00,55.1,53.7,29.94,East,95,1.0,2.0,95,0.00,,,0.00,Wunderground v.1.15,2013-09-21 08:14:00,
2013-09-21 04:19:00,55.1,53.4,29.94,East,82,1.0,3.0,94,0.00,,,0.00,Wunderground v.1.15,2013-09-21 08:19:00,
2013-09-21 04:24:00,55.1,53.4,29.94,ENE,57,1.0,3.0,94,0.00,,,0.00,Wunderground v.1.15,2013-09-21 08:24:00,
2013-09-21 04:30:00,55.2,53.5,29.94,ENE,67,1.0,1.0,94,0.00,,,0.00,Wunderground v.1.15,2013-09-21 08:30:00,
2013-09-21 04:34:00,55.3,53.6,29.94,ENE,72,1.0,1.0,94,0.00,,,0.00,Wunderground v.1.15,2013-09-21 08:34:00,
2013-09-21 04:39:00,55.3,53.3,29.94,SSE,167,1.0,1.0,93,0.00,,,0.00,Wunderground v.1.15,2013-09-21 08:39:00,
2013-09-21 04:45:00,55.3,53.6,29.94,ESE,102,1.0,1.0,94,0.00,,,0.00,Wunderground v.1.15,2013-09-21 08:45:00,
2013-09-21 04:49:00,55.3,53.3,29.94,ENE,69,0.0,0.0,93,0.00,,,0.00,Wunderground v.1.15,2013-09-21 08:49:00,
2013-09-21 04:54:00,55.4,53.4,29.94,ENE,76,1.0,2.0,93,0.00,,,0.00,Wunderground v.1.15,2013-09-21 08:54:00,
2013-09-21 04:59:00,55.4,53.4,29.93,SSE,159,1.0,1.0,93,0.00,,,0.00,Wunderground v.1.15,2013-09-21 08:59:00,
2013-09-21 05:04:00,55.4,53.4,29.93,East,91,1.0,1.0,93,0.00,,,0.00,Wunderground v.1.15,2013-09-21 09:04:00,
2013-09-21 05:09:00,55.4,53.4,29.93,SSE,153,1.0,2.0,93,0.00,,,0.00,Wunderground v.1.15,2013-09-21 09:09:00,
2013-09-21 05:14:00,55.4,53.4,29.93,SE,138,1.0,2.0,93,0.00,,,0.00,Wunderground v.1.15,2013-09-21 09:14:00,
2013-09-21 05:19:00,55.4,53.4,29.92,East,90,1.0,1.0,93,0.00,,,0.00,Wunderground v.1.15,2013-09-21 09:19:00,
2013-09-21 05:24:00,55.4,53.4,29.92,ESE,122,1.0,1.0,93,0.00,,,0.00,Wunderground v.1.15,2013-09-21 09:24:00,
2013-09-21 05:29:00,55.3,53.3,29.92,ENE,76,1.0,2.0,93,0.00,,,0.00,Wunderground v.1.15,2013-09-21 09:29:00,
2013-09-21 05:34:00,55.3,53.3,29.92,NNE,22,1.0,2.0,93,0.00,,,0.00,Wunderground v.1.15,2013-09-21 09:34:00,
2013-09-21 05:39:00,55.3,53.3,29.91,ENE,58,2.0,2.0,93,0.00,,,0.00,Wunderground v.1.15,2013-09-21 09:39:00,
2013-09-21 05:44:00,55.3,53.3,29.91,ESE,111,2.0,2.0,93,0.00,,,0.00,Wunderground v.1.15,2013-09-21 09:44:00,
2013-09-21 05:54:00,55.3,53.3,29.91,NE,54,1.0,1.0,93,0.00,,,0.00,Wunderground v.1.15,2013-09-21 09:54:00,
2013-09-21 06:00:00,55.2,53.2,29.91,ENE,68,1.0,2.0,93,0.00,,,0.00,Wunderground v.1.15,2013-09-21 10:00:00,
2013-09-21 06:09:00,55.2,53.2,29.91,East,82,1.0,1.0,93,0.00,,,0.00,Wunderground v.1.15,2013-09-21 10:09:00,
2013-09-21 06:14:00,55.1,53.1,29.90,East,87,1.0,1.0,93,0.00,,,0.00,Wunderground v.1.15,2013-09-21 10:14:00,
2013-09-21 06:19:00,55.1,53.1,29.90,NE,55,1.0,4.0,93,0.00,,,0.00,Wunderground v.1.15,2013-09-21 10:19:00,
2013-09-21 06:24:00,55.1,53.1,29.90,East,88,2.0,4.0,93,0.00,,,0.00,Wunderground v.1.15,2013-09-21 10:24:00,
2013-09-21 06:29:00,55.1,53.1,29.90,NE,52,2.0,2.0,93,0.00,,,0.00,Wunderground v.1.15,2013-09-21 10:29:00,
2013-09-21 06:39:00,55.0,53.0,29.89,WNW,297,1.0,2.0,93,0.00,,,0.00,Wunderground v.1.15,2013-09-21 10:39:00,
2013-09-21 06:44:00,55.0,53.0,29.89,SSW,213,1.0,4.0,93,0.00,,,0.00,Wunderground v.1.15,2013-09-21 10:44:00,
2013-09-21 06:49:00,55.0,53.0,29.89,East,89,1.0,3.0,93,0.00,,,0.00,Wunderground v.1.15,2013-09-21 10:49:00,
2013-09-21 06:54:00,55.1,52.8,29.89,SE,132,1.0,3.0,92,0.00,,,0.00,Wunderground v.1.15,2013-09-21 10:54:00,
2013-09-21 07:00:00,55.1,53.1,29.89,ESE,110,1.0,1.0,93,0.00,,,0.00,Wunderground v.1.15,2013-09-21 11:00:00,
2013-09-21 07:04:00,55.1,52.8,29.89,ENE,62,1.0,2.0,92,0.00,,,0.00,Wunderground v.1.15,2013-09-21 11:04:00,
2013-09-21 07:09:00,55.1,52.8,29.89,ESE,113,2.0,3.0,92,0.00,,,0.00,Wunderground v.1.15,2013-09-21 11:09:00,
2013-09-21 07:15:00,55.2,52.9,29.89,NE,51,2.0,3.0,92,0.00,,,0.00,Wunderground v.1.15,2013-09-21 11:15:00,
2013-09-21 07:19:00,55.2,52.9,29.89,ENE,75,2.0,2.0,92,0.00,,,0.00,Wunderground v.1.15,2013-09-21 11:19:00,
2013-09-21 07:24:00,55.2,52.9,29.89,ENE,67,2.0,2.0,92,0.00,,,0.00,Wunderground v.1.15,2013-09-21 11:24:00,
2013-09-21 07:30:00,55.3,52.7,29.90,NE,36,2.0,3.0,91,0.00,,,0.00,Wunderground v.1.15,2013-09-21 11:30:00,
2013-09-21 07:34:00,55.3,53.0,29.89,SSW,207,1.0,3.0,92,0.00,,,0.00,Wunderground v.1.15,2013-09-21 11:34:00,
2013-09-21 07:39:00,55.3,52.7,29.89,East,96,2.0,2.0,91,0.00,,,0.00,Wunderground v.1.15,2013-09-21 11:39:00,
2013-09-21 07:44:00,55.3,53.0,29.89,East,89,2.0,2.0,92,0.00,,,0.00,Wunderground v.1.15,2013-09-21 11:44:00,
2013-09-21 07:49:00,55.3,52.7,29.88,SSE,153,2.0,2.0,91,0.00,,,0.00,Wunderground v.1.15,2013-09-21 11:49:00,
2013-09-21 07:54:00,55.3,52.7,29.89,ENE,64,1.0,10.0,91,0.00,,,0.00,Wunderground v.1.15,2013-09-21 11:54:00,
2013-09-21 07:59:00,55.3,52.7,29.88,SE,142,2.0,3.0,91,0.00,,,0.00,Wunderground v.1.15,2013-09-21 11:59:00,
2013-09-21 08:04:00,55.3,52.7,29.89,SE,124,2.0,3.0,91,0.00,,,0.00,Wunderground v.1.15,2013-09-21 12:04:00,
2013-09-21 08:09:00,55.4,52.8,29.89,ENE,61,1.0,1.0,91,0.00,,,0.00,Wunderground v.1.15,2013-09-21 12:09:00,
2013-09-21 08:14:00,55.5,52.9,29.89,NE,40,1.0,1.0,91,0.00,,,0.00,Wunderground v.1.15,2013-09-21 12:14:00,
2013-09-21 08:19:00,55.6,53.0,29.88,East,87,1.0,1.0,91,0.00,,,0.00,Wunderground v.1.15,2013-09-21 12:19:00,
2013-09-21 08:24:00,55.7,53.1,29.88,SSW,200,1.0,2.0,91,0.00,,,0.00,Wunderground v.1.15,2013-09-21 12:24:00,
2013-09-21 08:29:00,55.7,53.1,29.88,ESE,103,2.0,3.0,91,0.00,,,0.00,Wunderground v.1.15,2013-09-21 12:29:00,
2013-09-21 08:34:00,55.8,53.2,29.88,ESE,110,1.0,3.0,91,0.00,,,0.00,Wunderground v.1.15,2013-09-21 12:34:00,
2013-09-21 08:39:00,56.0,53.4,29.88,NE,36,2.0,4.0,91,0.00,,,0.00,Wunderground v.1.15,2013-09-21 12:39:00,
2013-09-21 08:49:00,56.6,53.7,29.88,ENE,67,2.0,2.0,90,0.00,,,0.00,Wunderground v.1.15,2013-09-21 12:49:00,
2013-09-21 08:54:00,56.8,53.9,29.87,SE,138,2.0,2.0,90,0.00,,,0.00,Wunderground v.1.15,2013-09-21 12:54:00,
2013-09-21 08:59:00,57.0,54.1,29.87,ESE,115,1.0,1.0,90,0.00,,,0.00,Wunderground v.1.15,2013-09-21 12:59:00,
2013-09-21 09:04:00,57.3,54.1,29.87,NNE,21,1.0,1.0,89,0.00,,,0.00,Wunderground v.1.15,2013-09-21 13:04:00,
2013-09-21 09:09:00,57.5,54.0,29.87,NE,51,1.0,1.0,88,0.00,,,0.00,Wunderground v.1.15,2013-09-21 13:09:00,
2013-09-21 09:14:00,57.8,54.3,29.87,NNE,29,2.0,2.0,88,0.00,,,0.00,Wunderground v.1.15,2013-09-21 13:14:00,
2013-09-21 09:24:00,59.0,54.8,29.87,ENE,64,2.0,2.0,86,0.00,,,0.00,Wunderground v.1.15,2013-09-21 13:24:00,
2013-09-21 09:29:00,59.3,55.1,29.86,SSW,205,2.0,7.0,86,0.00,,,0.00,Wunderground v.1.15,2013-09-21 13:29:00,
2013-09-21 09:34:00,59.8,55.0,29.86,ESE,118,2.0,7.0,84,0.00,,,0.00,Wunderground v.1.15,2013-09-21 13:34:00,
2013-09-21 09:39:00,60.3,55.8,29.85,ENE,59,3.0,3.0,85,0.00,,,0.00,Wunderground v.1.15,2013-09-21 13:39:00,
2013-09-21 09:44:00,60.9,55.7,29.85,ENE,59,3.0,3.0,83,0.00,,,0.00,Wunderground v.1.15,2013-09-21 13:44:00,
2013-09-21 09:49:00,61.2,55.3,29.85,ESE,113,2.0,3.0,81,0.00,,,0.00,Wunderground v.1.15,2013-09-21 13:49:00,
2013-09-21 09:54:00,61.4,55.9,29.85,ESE,103,2.0,3.0,82,0.00,,,0.00,Wunderground v.1.15,2013-09-21 13:54:00,
2013-09-21 10:00:00,62.0,56.1,29.84,NE,52,3.0,3.0,81,0.00,,,0.00,Wunderground v.1.15,2013-09-21 14:00:00,
2013-09-21 10:04:00,62.2,56.0,29.84,SW,227,3.0,3.0,80,0.00,,,0.00,Wunderground v.1.15,2013-09-21 14:04:00,
2013-09-21 10:09:00,62.6,56.7,29.84,ENE,59,2.0,2.0,81,0.00,,,0.00,Wunderground v.1.15,2013-09-21 14:09:00,
2013-09-21 10:14:00,63.1,56.1,29.83,ESE,103,3.0,3.0,78,0.00,,,0.00,Wunderground v.1.15,2013-09-21 14:14:00,
2013-09-21 10:24:00,63.8,57.2,29.83,ENE,58,2.0,3.0,79,0.00,,,0.00,Wunderground v.1.15,2013-09-21 14:24:00,
2013-09-21 10:29:00,64.2,56.8,29.82,SSW,211,2.0,2.0,77,0.00,,,0.00,Wunderground v.1.15,2013-09-21 14:29:00,
2013-09-21 10:34:00,64.5,56.8,29.82,West,261,2.0,3.0,76,0.00,,,0.00,Wunderground v.1.15,2013-09-21 14:34:00,
2013-09-21 10:39:00,64.9,56.4,29.82,East,98,3.0,4.0,74,0.00,,,0.00,Wunderground v.1.15,2013-09-21 14:39:00,
2013-09-21 10:44:00,65.3,56.4,29.81,NE,56,3.0,4.0,73,0.00,,,0.00,Wunderground v.1.15,2013-09-21 14:44:00,
2013-09-21 10:49:00,65.5,55.8,29.81,East,101,4.0,5.0,71,0.00,,,0.00,Wunderground v.1.15,2013-09-21 14:49:00,
2013-09-21 10:54:00,65.6,55.9,29.81,NW,317,3.0,5.0,71,0.00,,,0.00,Wunderground v.1.15,2013-09-21 14:54:00,
2013-09-21 10:59:00,66.0,56.3,29.81,SE,134,3.0,5.0,71,0.00,,,0.00,Wunderground v.1.15,2013-09-21 14:59:00,
2013-09-21 11:09:00,66.6,55.7,29.80,NNW,329,3.0,3.0,68,0.00,,,0.00,Wunderground v.1.15,2013-09-21 15:09:00,
2013-09-21 11:15:00,66.9,56.0,29.80,WNW,288,3.0,3.0,68,0.00,,,0.00,Wunderground v.1.15,2013-09-21 15:15:00,
2013-09-21 11:19:00,67.1,55.8,29.81,NNE,22,2.0,4.0,67,0.00,,,0.00,Wunderground v.1.15,2013-09-21 15:19:00,
2013-09-21 11:24:00,67.1,55.8,29.81,ENE,64,2.0,4.0,67,0.00,,,0.00,Wunderground v.1.15,2013-09-21 15:24:00,
2013-09-21 11:29:00,67.3,55.5,29.80,SW,214,2.0,2.0,66,0.00,,,0.00,Wunderground v.1.15,2013-09-21 15:29:00,
2013-09-21 11:34:00,67.5,55.7,29.80,SW,216,2.0,2.0,66,0.00,,,0.00,Wunderground v.1.15,2013-09-21 15:34:00,
2013-09-21 11:39:00,67.6,55.8,29.80,NNW,348,3.0,3.0,66,0.00,,,0.00,Wunderground v.1.15,2013-09-21 15:39:00,
2013-09-21 11:45:00,67.8,55.6,29.80,SE,129,2.0,3.0,65,0.00,,,0.00,Wunderground v.1.15,2013-09-21 15:45:00,
2013-09-21 11:49:00,67.8,56.0,29.80,ENE,71,3.0,3.0,66,0.00,,,0.00,Wunderground v.1.15,2013-09-21 15:49:00,
2013-09-21 11:54:00,68.0,54.9,29.79,ENE,76,3.0,4.0,63,0.00,,,0.00,Wunderground v.1.15,2013-09-21 15:54:00,
2013-09-21 12:00:00,68.2,55.6,29.78,ENE,63,3.0,3.0,64,0.00,,,0.00,Wunderground v.1.15,2013-09-21 16:00:00,
2013-09-21 12:04:00,68.1,55.0,29.78,SE,133,3.0,6.0,63,0.00,,,0.00,Wunderground v.1.15,2013-09-21 16:04:00,
2013-09-21 12:09:00,68.1,55.0,29.78,East,86,3.0,3.0,63,0.00,,,0.00,Wunderground v.1.15,2013-09-21 16:09:00,
2013-09-21 12:15:00,68.5,55.0,29.78,NE,49,3.0,4.0,62,0.00,,,0.00,Wunderground v.1.15,2013-09-21 16:15:00,
2013-09-21 12:19:00,68.6,54.6,29.78,ENE,60,3.0,3.0,61,0.00,,,0.00,Wunderground v.1.15,2013-09-21 16:19:00,
2013-09-21 12:24:00,68.9,54.9,29.77,ENE,72,3.0,3.0,61,0.00,,,0.00,Wunderground v.1.15,2013-09-21 16:24:00,
2013-09-21 12:29:00,69.1,54.2,29.77,WSW,250,3.0,3.0,59,0.00,,,0.00,Wunderground v.1.15,2013-09-21 16:29:00,
2013-09-21 12:34:00,69.1,53.7,29.77,WSW,246,3.0,3.0,58,0.00,,,0.00,Wunderground v.1.15,2013-09-21 16:34:00,
2013-09-21 12:39:00,69.2,53.3,29.77,ESE,105,3.0,6.0,57,0.00,,,0.00,Wunderground v.1.15,2013-09-21 16:39:00,
2013-09-21 12:44:00,69.3,54.4,29.77,SSW,200,3.0,6.0,59,0.00,,,0.00,Wunderground v.1.15,2013-09-21 16:44:00,
2013-09-21 12:54:00,69.8,53.4,29.76,SSW,205,3.0,3.0,56,0.00,,,0.00,Wunderground v.1.15,2013-09-21 16:54:00,
2013-09-21 12:59:00,70.0,52.6,29.76,SE,134,3.0,4.0,54,0.00,,,0.00,Wunderground v.1.15,2013-09-21 16:59:00,
2013-09-21 13:04:00,70.1,52.7,29.76,SW,233,3.0,4.0,54,0.00,,,0.00,Wunderground v.1.15,2013-09-21 17:04:00,
2013-09-21 13:09:00,70.2,53.8,29.76,NW,304,3.0,3.0,56,0.00,,,0.00,Wunderground v.1.15,2013-09-21 17:09:00,
2013-09-21 13:14:00,70.3,51.8,29.76,North,5,2.0,3.0,52,0.00,,,0.00,Wunderground v.1.15,2013-09-21 17:14:00,
2013-09-21 13:19:00,70.6,53.6,29.75,ESE,113,2.0,2.0,55,0.00,,,0.00,Wunderground v.1.15,2013-09-21 17:19:00,
2013-09-21 13:24:00,70.8,52.8,29.75,North,360,2.0,5.0,53,0.00,,,0.00,Wunderground v.1.15,2013-09-21 17:24:00,
2013-09-21 13:30:00,70.7,52.2,29.75,SSW,192,3.0,5.0,52,0.00,,,0.00,Wunderground v.1.15,2013-09-21 17:30:00,
2013-09-21 13:34:00,70.7,53.2,29.74,SE,134,3.0,5.0,54,0.00,,,0.00,Wunderground v.1.15,2013-09-21 17:34:00,
2013-09-21 13:39:00,70.6,52.6,29.74,ENE,72,2.0,2.0,53,0.00,,,0.00,Wunderground v.1.15,2013-09-21 17:39:00,
2013-09-21 13:44:00,70.5,52.0,29.74,South,169,3.0,3.0,52,0.00,,,0.00,Wunderground v.1.15,2013-09-21 17:44:00,
2013-09-21 13:49:00,70.2,52.8,29.74,NE,42,3.0,5.0,54,0.00,,,0.00,Wunderground v.1.15,2013-09-21 17:49:00,
2013-09-21 13:54:00,70.1,52.2,29.74,SSW,209,3.0,5.0,53,0.00,,,0.00,Wunderground v.1.15,2013-09-21 17:54:00,
2013-09-21 13:59:00,70.6,52.6,29.74,ESE,103,2.0,2.0,53,0.00,,,0.00,Wunderground v.1.15,2013-09-21 17:59:00,
2013-09-21 14:04:00,70.9,52.9,29.74,NE,49,2.0,2.0,53,0.00,,,0.00,Wunderground v.1.15,2013-09-21 18:04:00,
2013-09-21 14:09:00,71.2,52.1,29.74,South,173,2.0,2.0,51,0.00,,,0.00,Wunderground v.1.15,2013-09-21 18:09:00,
2013-09-21 14:14:00,71.3,52.8,29.74,East,92,3.0,3.0,52,0.00,,,0.00,Wunderground v.1.15,2013-09-21 18:14:00,
2013-09-21 14:24:00,71.7,52.1,29.73,SSW,205,2.0,5.0,50,0.00,,,0.00,Wunderground v.1.15,2013-09-21 18:24:00,
2013-09-21 14:29:00,71.9,50.0,29.73,East,83,2.0,2.0,46,0.00,,,0.00,Wunderground v.1.15,2013-09-21 18:29:00,
2013-09-21 14:34:00,72.1,50.8,29.72,ESE,121,2.0,2.0,47,0.00,,,0.00,Wunderground v.1.15,2013-09-21 18:34:00,
2013-09-21 14:39:00,72.0,50.1,29.72,West,275,2.0,2.0,46,0.00,,,0.00,Wunderground v.1.15,2013-09-21 18:39:00,
2013-09-21 14:44:00,72.0,50.1,29.72,NNW,348,2.0,2.0,46,0.00,,,0.00,Wunderground v.1.15,2013-09-21 18:44:00,
2013-09-21 14:49:00,72.0,50.7,29.72,West,266,2.0,2.0,47,0.00,,,0.00,Wunderground v.1.15,2013-09-21 18:49:00,
2013-09-21 14:54:00,72.1,50.8,29.72,West,271,2.0,7.0,47,0.00,,,0.00,Wunderground v.1.15,2013-09-21 18:54:00,
2013-09-21 14:59:00,72.0,50.1,29.71,ENE,74,2.0,3.0,46,0.00,,,0.00,Wunderground v.1.15,2013-09-21 18:59:00,
2013-09-21 15:04:00,71.8,51.0,29.71,NNE,19,2.0,3.0,48,0.00,,,0.00,Wunderground v.1.15,2013-09-21 19:04:00,
2013-09-21 15:09:00,71.9,49.4,29.71,NE,48,2.0,3.0,45,0.00,,,0.00,Wunderground v.1.15,2013-09-21 19:09:00,
2013-09-21 15:14:00,72.0,48.9,29.71,ENE,60,2.0,4.0,44,0.00,,,0.00,Wunderground v.1.15,2013-09-21 19:14:00,
2013-09-21 15:24:00,72.1,49.0,29.71,SE,136,2.0,2.0,44,0.00,,,0.00,Wunderground v.1.15,2013-09-21 19:24:00,
2013-09-21 15:29:00,71.8,49.9,29.70,South,171,2.0,2.0,46,0.00,,,0.00,Wunderground v.1.15,2013-09-21 19:29:00,
2013-09-21 15:34:00,72.0,50.1,29.70,NNE,18,2.0,2.0,46,0.00,,,0.00,Wunderground v.1.15,2013-09-21 19:34:00,
2013-09-21 15:39:00,71.9,50.6,29.70,ENE,78,1.0,1.0,47,0.00,,,0.00,Wunderground v.1.15,2013-09-21 19:39:00,
2013-09-21 15:45:00,71.5,49.0,29.70,NNE,13,2.0,2.0,45,0.00,,,0.00,Wunderground v.1.15,2013-09-21 19:45:00,
2013-09-21 15:49:00,71.3,49.4,29.70,NNE,16,2.0,2.0,46,0.00,,,0.00,Wunderground v.1.15,2013-09-21 19:49:00,
2013-09-21 15:54:00,71.4,49.5,29.70,WNW,291,2.0,2.0,46,0.00,,,0.00,Wunderground v.1.15,2013-09-21 19:54:00,
2013-09-21 15:59:00,71.3,50.6,29.69,NNE,29,1.0,1.0,48,0.00,,,0.00,Wunderground v.1.15,2013-09-21 19:59:00,
2013-09-21 16:04:00,71.3,51.1,29.69,NE,42,1.0,1.0,49,0.00,,,0.00,Wunderground v.1.15,2013-09-21 20:04:00,
2013-09-21 16:15:00,71.2,51.1,29.69,NNW,348,1.0,3.0,49,0.00,,,0.00,Wunderground v.1.15,2013-09-21 20:15:00,
2013-09-21 16:19:00,71.0,51.4,29.69,South,184,1.0,1.0,50,0.00,,,0.00,Wunderground v.1.15,2013-09-21 20:19:00,
2013-09-21 16:24:00,70.7,51.1,29.68,South,186,1.0,3.0,50,0.00,,,0.00,Wunderground v.1.15,2013-09-21 20:24:00,
2013-09-21 16:29:00,70.4,50.9,29.69,NE,52,2.0,2.0,50,0.00,,,0.00,Wunderground v.1.15,2013-09-21 20:29:00,
2013-09-21 16:34:00,70.1,51.1,29.69,East,87,1.0,2.0,51,0.00,,,0.00,Wunderground v.1.15,2013-09-21 20:34:00,
2013-09-21 16:39:00,69.7,50.2,29.69,East,99,2.0,2.0,50,0.00,,,0.00,Wunderground v.1.15,2013-09-21 20:39:00,
2013-09-21 16:44:00,69.4,50.5,29.70,ESE,108,1.0,2.0,51,0.00,,,0.00,Wunderground v.1.15,2013-09-21 20:44:00,
2013-09-21 16:49:00,69.1,49.7,29.69,SSW,213,1.0,1.0,50,0.00,,,0.00,Wunderground v.1.15,2013-09-21 20:49:00,
2013-09-21 16:54:00,68.9,49.5,29.69,SE,128,1.0,1.0,50,0.00,,,0.00,Wunderground v.1.15,2013-09-21 20:54:00,
2013-09-21 16:59:00,68.7,48.8,29.69,WNW,300,1.0,1.0,49,0.00,,,0.00,Wunderground v.1.15,2013-09-21 20:59:00,
2013-09-21 17:09:00,68.4,49.0,29.69,ENE,75,1.0,1.0,50,0.00,,,0.00,Wunderground v.1.15,2013-09-21 21:09:00,
2013-09-21 17:14:00,68.1,49.3,29.69,ENE,72,1.0,1.0,51,0.00,,,0.00,Wunderground v.1.15,2013-09-21 21:14:00,
2013-09-21 17:19:00,67.8,49.5,29.69,East,80,1.0,1.0,52,0.00,,,0.00,Wunderground v.1.15,2013-09-21 21:19:00,
2013-09-21 17:24:00,67.4,49.2,29.69,ENE,57,1.0,1.0,52,0.00,,,0.00,Wunderground v.1.15,2013-09-21 21:24:00,
2013-09-21 17:29:00,67.2,50.5,29.69,East,84,1.0,1.0,55,0.00,,,0.00,Wunderground v.1.15,2013-09-21 21:29:00,
2013-09-21 17:34:00,66.8,49.6,29.69,South,180,1.0,1.0,54,0.00,,,0.00,Wunderground v.1.15,2013-09-21 21:34:00,
2013-09-21 17:39:00,66.6,49.4,29.69,ESE,117,1.0,1.0,54,0.00,,,0.00,Wunderground v.1.15,2013-09-21 21:39:00,
2013-09-21 17:44:00,66.4,49.2,29.69,East,97,1.0,1.0,54,0.00,,,0.00,Wunderground v.1.15,2013-09-21 21:44:00,
2013-09-21 17:54:00,66.1,49.0,29.69,ENE,65,1.0,1.0,54,0.00,,,0.00,Wunderground v.1.15,2013-09-21 21:54:00,
2013-09-21 17:59:00,65.7,49.6,29.69,East,95,1.0,1.0,56,0.00,,,0.00,Wunderground v.1.15,2013-09-21 21:59:00,
2013-09-21 18:04:00,65.2,50.0,29.68,ENE,71,1.0,1.0,58,0.00,,,0.00,Wunderground v.1.15,2013-09-21 22:04:00,
2013-09-21 18:15:00,64.6,50.4,29.69,WNW,295,1.0,2.0,60,0.00,,,0.00,Wunderground v.1.15,2013-09-21 22:15:00,
2013-09-21 18:19:00,64.4,50.2,29.69,NNW,347,1.0,1.0,60,0.00,,,0.00,Wunderground v.1.15,2013-09-21 22:19:00,
2013-09-21 18:24:00,64.1,50.4,29.69,ESE,107,1.0,1.0,61,0.00,,,0.00,Wunderground v.1.15,2013-09-21 22:24:00,
2013-09-21 18:29:00,63.8,50.5,29.69,ENE,59,0.0,0.0,62,0.00,,,0.00,Wunderground v.1.15,2013-09-21 22:29:00,
2013-09-21 18:34:00,63.5,51.1,29.69,NNE,32,0.0,1.0,64,0.00,,,0.00,Wunderground v.1.15,2013-09-21 22:34:00,
2013-09-21 18:39:00,63.4,51.4,29.69,NE,52,1.0,1.0,65,0.00,,,0.00,Wunderground v.1.15,2013-09-21 22:39:00,
2013-09-21 18:44:00,63.1,51.6,29.69,East,80,1.0,1.0,66,0.00,,,0.00,Wunderground v.1.15,2013-09-21 22:44:00,
2013-09-21 18:49:00,62.9,51.8,29.69,ENE,69,1.0,1.0,67,0.00,,,0.00,Wunderground v.1.15,2013-09-21 22:49:00,
2013-09-21 18:54:00,62.5,51.8,29.69,ESE,108,1.0,1.0,68,0.00,,,0.00,Wunderground v.1.15,2013-09-21 22:54:00,
2013-09-21 18:59:00,62.3,52.0,29.69,ENE,70,0.0,0.0,69,0.00,,,0.00,Wunderground v.1.15,2013-09-21 22:59:00,
2013-09-21 19:04:00,61.8,51.9,29.69,SSE,155,0.0,0.0,70,0.00,,,0.00,Wunderground v.1.15,2013-09-21 23:04:00,
2013-09-21 19:14:00,61.2,52.5,29.69,ENE,67,0.0,0.0,73,0.00,,,0.00,Wunderground v.1.15,2013-09-21 23:14:00,
2013-09-21 19:19:00,61.3,52.9,29.69,ENE,69,1.0,1.0,74,0.00,,,0.00,Wunderground v.1.15,2013-09-21 23:19:00,
2013-09-21 19:24:00,61.6,53.6,29.69,NNW,345,1.0,3.0,75,0.00,,,0.00,Wunderground v.1.15,2013-09-21 23:24:00,
2013-09-21 19:29:00,61.9,53.9,29.70,NE,51,1.0,3.0,75,0.00,,,0.00,Wunderground v.1.15,2013-09-21 23:29:00,
2013-09-21 19:34:00,61.9,53.9,29.70,WSW,252,1.0,3.0,75,0.00,,,0.00,Wunderground v.1.15,2013-09-21 23:34:00,
2013-09-21 19:39:00,61.9,54.2,29.70,ESE,118,2.0,2.0,76,0.00,,,0.00,Wunderground v.1.15,2013-09-21 23:39:00,
2013-09-21 19:44:00,61.8,54.2,29.71,SE,126,2.0,2.0,76,0.00,,,0.00,Wunderground v.1.15,2013-09-21 23:44:00,
2013-09-21 19:49:00,61.8,54.2,29.70,West,269,2.0,2.0,76,0.00,,,0.00,Wunderground v.1.15,2013-09-21 23:49:00,
2013-09-21 19:54:00,61.6,54.3,29.70,ENE,60,1.0,2.0,77,0.00,,,0.00,Wunderground v.1.15,2013-09-21 23:54:00,
2013-09-21 20:00:00,61.2,53.9,29.70,WNW,303,1.0,1.0,77,0.00,,,0.00,Wunderground v.1.15,2013-09-22 00:00:00,
2013-09-21 20:04:00,61.0,54.1,29.70,NNE,22,1.0,1.0,78,0.00,,,0.00,Wunderground v.1.15,2013-09-22 00:04:00,
2013-09-21 20:09:00,60.8,54.2,29.70,ESE,119,1.0,1.0,79,0.00,,,0.00,Wunderground v.1.15,2013-09-22 00:09:00,
2013-09-21 20:15:00,60.7,54.1,29.70,South,187,1.0,3.0,79,0.00,,,0.00,Wunderground v.1.15,2013-09-22 00:15:00,
2013-09-21 20:19:00,60.4,53.9,29.70,NE,39,2.0,2.0,79,0.00,,,0.00,Wunderground v.1.15,2013-09-22 00:19:00,
2013-09-21 20:24:00,60.2,54.0,29.70,SSE,148,1.0,2.0,80,0.00,,,0.00,Wunderground v.1.15,2013-09-22 00:24:00,
2013-09-21 20:29:00,60.0,53.8,29.70,NE,40,1.0,2.0,80,0.00,,,0.00,Wunderground v.1.15,2013-09-22 00:29:00,
2013-09-21 20:44:00,59.5,54.0,29.70,NNE,31,1.0,2.0,82,0.00,,,0.00,Wunderground v.1.15,2013-09-22 00:44:00,
2013-09-21 20:49:00,59.3,53.8,29.70,ESE,110,1.0,1.0,82,0.00,,,0.00,Wunderground v.1.15,2013-09-22 00:49:00,
2013-09-21 20:54:00,59.2,53.7,29.70,East,93,1.0,1.0,82,0.00,,,0.00,Wunderground v.1.15,2013-09-22 00:54:00,
2013-09-21 20:59:00,59.1,53.6,29.70,ESE,109,2.0,2.0,82,0.00,,,0.00,Wunderground v.1.15,2013-09-22 00:59:00,
2013-09-21 21:04:00,59.0,53.5,29.70,ENE,78,1.0,2.0,82,0.00,,,0.00,Wunderground v.1.15,2013-09-22 01:04:00,
2013-09-21 21:09:00,59.0,53.8,29.70,NE,42,1.0,1.0,83,0.00,,,0.00,Wunderground v.1.15,2013-09-22 01:09:00,
2013-09-21 21:15:00,59.0,53.8,29.70,NE,56,1.0,3.0,83,0.00,,,0.00,Wunderground v.1.15,2013-09-22 01:15:00,
2013-09-21 21:19:00,59.0,53.8,29.70,NE,38,1.0,1.0,83,0.00,,,0.00,Wunderground v.1.15,2013-09-22 01:19:00,
2013-09-21 21:24:00,59.0,53.8,29.70,NNW,336,1.0,2.0,83,0.00,,,0.00,Wunderground v.1.15,2013-09-22 01:24:00,
2013-09-21 21:29:00,59.0,54.2,29.70,West,266,1.0,1.0,84,0.00,,,0.00,Wunderground v.1.15,2013-09-22 01:29:00,
2013-09-21 21:34:00,58.9,54.1,29.70,NE,46,1.0,2.0,84,0.00,,,0.00,Wunderground v.1.15,2013-09-22 01:34:00,
2013-09-21 21:39:00,58.7,53.9,29.70,ESE,115,1.0,1.0,84,0.00,,,0.00,Wunderground v.1.15,2013-09-22 01:39:00,
2013-09-21 21:44:00,58.6,54.1,29.70,West,271,2.0,2.0,85,0.00,,,0.00,Wunderground v.1.15,2013-09-22 01:44:00,
2013-09-21 21:54:00,58.5,54.0,29.70,SE,129,1.0,1.0,85,0.00,,,0.00,Wunderground v.1.15,2013-09-22 01:54:00,
2013-09-21 21:59:00,58.5,54.0,29.70,NNE,22,1.0,1.0,85,0.00,,,0.00,Wunderground v.1.15,2013-09-22 01:59:00,
2013-09-21 22:09:00,58.4,54.2,29.71,WSW,245,1.0,1.0,86,0.00,,,0.00,Wunderground v.1.15,2013-09-22 02:09:00,
2013-09-21 22:14:00,58.5,54.6,29.71,NW,315,1.0,1.0,87,0.00,,,0.00,Wunderground v.1.15,2013-09-22 02:14:00,
2013-09-21 22:19:00,58.5,54.6,29.71,NNE,28,1.0,1.0,87,0.00,,,0.00,Wunderground v.1.15,2013-09-22 02:19:00,
2013-09-21 22:24:00,58.7,54.8,29.71,NNW,330,0.0,2.0,87,0.00,,,0.00,Wunderground v.1.15,2013-09-22 02:24:00,
2013-09-21 22:29:00,58.9,55.0,29.70,SE,125,1.0,1.0,87,0.00,,,0.00,Wunderground v.1.15,2013-09-22 02:29:00,
2013-09-21 22:34:00,59.0,55.4,29.70,NE,51,1.0,1.0,88,0.00,,,0.00,Wunderground v.1.15,2013-09-22 02:34:00,
2013-09-21 22:39:00,59.0,55.4,29.70,East,92,1.0,1.0,88,0.00,,,0.00,Wunderground v.1.15,2013-09-22 02:39:00,
2013-09-21 22:44:00,59.0,55.4,29.70,ENE,69,1.0,2.0,88,0.00,,,0.00,Wunderground v.1.15,2013-09-22 02:44:00,
2013-09-21 22:54:00,59.3,55.7,29.70,ENE,74,1.0,1.0,88,0.00,,,0.00,Wunderground v.1.15,2013-09-22 02:54:00,
2013-09-21 22:59:00,59.5,55.9,29.70,SW,215,1.0,1.0,88,0.00,,,0.00,Wunderground v.1.15,2013-09-22 02:59:00,
2013-09-21 23:04:00,59.6,56.0,29.70,NW,315,1.0,1.0,88,0.00,,,0.00,Wunderground v.1.15,2013-09-22 03:04:00,
2013-09-21 23:09:00,59.8,56.2,29.69,ENE,69,1.0,1.0,88,0.00,,,0.00,Wunderground v.1.15,2013-09-22 03:09:00,
2013-09-21 23:14:00,59.9,56.3,29.69,WSW,239,1.0,1.0,88,0.00,,,0.00,Wunderground v.1.15,2013-09-22 03:14:00,
2013-09-21 23:19:00,60.0,56.7,29.69,SSE,157,1.0,1.0,89,0.00,,,0.00,Wunderground v.1.15,2013-09-22 03:19:00,
2013-09-21 23:24:00,60.2,56.9,29.69,ENE,63,1.0,1.0,89,0.00,,,0.00,Wunderground v.1.15,2013-09-22 03:24:00,
2013-09-21 23:29:00,60.3,57.0,29.69,WNW,299,1.0,1.0,89,0.00,,,0.00,Wunderground v.1.15,2013-09-22 03:29:00,
2013-09-21 23:34:00,60.5,57.2,29.69,East,82,1.0,1.0,89,0.00,,,0.00,Wunderground v.1.15,2013-09-22 03:34:00,
2013-09-21 23:39:00,60.5,57.2,29.68,SSW,196,1.0,1.0,89,0.00,,,0.00,Wunderground v.1.15,2013-09-22 03:39:00,
2013-09-21 23:44:00,60.7,57.4,29.68,NNE,28,1.0,1.0,89,0.00,,,0.00,Wunderground v.1.15,2013-09-22 03:44:00,
2013-09-21 23:49:00,60.8,57.5,29.68,NNE,23,1.0,2.0,89,0.00,,,0.00,Wunderground v.1.15,2013-09-22 03:49:00,
2013-09-21 23:54:00,61.0,57.7,29.68,NE,42,1.0,2.0,89,0.00,,,0.00,Wunderground v.1.15,2013-09-22 03:54:00,
2013-09-21 23:59:00,61.1,57.8,29.68,ENE,77,1.0,2.0,89,0.00,,,0.00,Wunderground v.1.15,2013-09-22 03:59:00,